DW8871 Weather Reports


Display with metric or nautical units.
time (UTC)temp
F
wind
direction
speed
MPH
gust
MPH
rain 1hr
in
rain 24hr
in
rain mn
in
humidity
%
barometer
mb
20260902051533 78 0 0.0 1.0 0.00 0.00 0.00 69 1014.0
20260902050034 78 0 0.0 2.0 0.00 0.00 0.00 68 1013.9
20260902050023 78 269 0.0 2.0 0.00 0.00 0.00 69 1012.9
20260902044539 78 0 0.0 3.0 0.00 0.00 0.00 69 1013.9
20260902043033 78 0 0.0 1.0 0.00 0.00 0.00 70 1013.9
20260902041538 78 0 0.0 1.0 0.00 0.00 0.00 70 1013.9
20260902040043 78 242 0.0 1.0 0.00 0.00 0.00 72 1014.0
20260902040033 78 242 0.0 1.0 0.00 0.00 0.00 72 1012.9
20260902034539 76 0 0.0 2.0 0.00 0.00 0.00 76 1013.9
20260902033035 76 0 0.0 2.0 0.00 0.00 0.00 82 1014.0
20260902031543 76 0 0.0 0.0 0.00 0.00 0.00 82 1013.8
20260902030037 77 0 0.0 0.0 0.00 0.00 0.00 83 1013.7
20260902030028 77 252 0.0 0.0 0.00 0.00 0.00 83 1012.6
20260902024539 77 0 0.0 0.0 0.00 0.00 0.00 81 1013.6
20260902023041 78 0 0.0 0.0 0.00 0.00 0.00 78 1013.6
20260902021532 78 0 0.0 0.0 0.00 0.00 0.00 76 1013.6
20260902020038 79 0 0.0 0.0 0.00 0.00 0.00 73 1013.5
20260902020018 80 252 0.0 0.0 0.00 0.00 0.00 73 1012.3
20260902014534 80 0 0.0 0.0 0.00 0.00 0.00 72 1013.3
20260902013038 81 0 0.0 0.0 0.00 0.00 0.00 69 1013.2
20260902011535 83 0 0.0 0.0 0.00 0.00 0.00 67 1013.1
20260902010033 85 0 0.0 0.0 0.00 0.00 0.00 63 1013.0
20260902004536 87 0 0.0 0.0 0.00 0.00 0.00 58 1013.1
20260902003041 89 0 0.0 0.0 0.00 0.00 0.00 56 1013.1
20260902001551 91 0 0.0 1.0 0.00 0.00 0.00 51 1013.2
20260902000040 93 258 0.0 3.0 0.00 0.00 0.00 49 1012.2
20260902000037 93 0 0.0 3.0 0.00 0.00 0.00 48 1013.4
20260901234538 94 264 0.0 3.0 0.00 0.00 0.00 45 1013.5
20260901233035 95 261 2.0 7.0 0.00 0.00 0.00 41 1013.5
20260901231534 95 263 2.0 8.0 0.00 0.00 0.00 39 1013.4
20260901230036 96 248 2.0 6.0 0.00 0.00 0.00 41 1012.3
20260901230033 96 249 3.0 7.0 0.00 0.00 0.00 40 1013.4
20260901224533 96 267 4.0 12.0 0.00 0.00 0.00 39 1013.6
20260901223038 96 273 7.0 13.0 0.00 0.00 0.00 36 1013.5
20260901221540 97 276 6.0 12.0 0.00 0.00 0.00 35 1013.5
20260901220034 97 296 3.0 11.0 0.00 0.00 0.00 40 1013.5
20260901220028 98 293 4.0 8.0 0.00 0.00 0.00 38 1012.3
20260901214604 97 272 6.0 15.0 0.00 0.00 0.00 36 1013.6
20260901213035 97 266 4.0 8.0 0.00 0.00 0.00 35 1013.7
20260901211535 97 261 6.0 14.0 0.00 0.00 0.00 37 1013.8
20260901210040 98 280 3.0 7.0 0.00 0.00 0.00 41 1012.9
20260901210037 97 295 4.0 8.0 0.00 0.00 0.00 41 1014.0
20260901204532 97 269 8.0 14.0 0.00 0.00 0.00 35 1014.1
20260901203037 97 261 5.0 14.0 0.00 0.00 0.00 36 1014.3
20260901201533 97 292 6.0 15.0 0.00 0.00 0.00 38 1014.4
20260901200039 97 263 3.0 11.0 0.00 0.00 0.00 39 1014.5
20260901200020 98 259 3.0 10.0 0.00 0.00 0.00 39 1013.4
20260901194538 96 288 8.0 14.0 0.00 0.00 0.00 37 1014.7
20260901193034 96 263 4.0 12.0 0.00 0.00 0.00 43 1014.7
20260901191552 96 321 5.0 12.0 0.00 0.00 0.00 39 1014.9
20260901190035 96 252 3.0 14.0 0.00 0.00 0.00 43 1015.1
20260901190029 96 274 4.0 12.0 0.00 0.00 0.00 43 1013.9
20260901184544 95 270 5.0 11.0 0.00 0.00 0.00 42 1015.2
20260901183046 95 259 5.0 11.0 0.00 0.00 0.00 44 1015.3
20260901181535 94 271 6.0 16.0 0.00 0.00 0.00 45 1015.6
20260901180034 93 255 6.0 15.0 0.00 0.00 0.00 45 1015.8
20260901180020 94 255 6.0 11.0 0.00 0.00 0.00 46 1014.6
20260901174536 93 297 4.0 12.0 0.00 0.00 0.00 49 1016.0
20260901173049 92 298 6.0 14.0 0.00 0.00 0.00 48 1016.1
20260901171535 91 263 5.0 14.0 0.00 0.00 0.00 50 1016.1
20260901170037 91 279 5.0 14.0 0.00 0.00 0.00 51 1016.3
20260901170012 91 281 5.0 10.0 0.00 0.00 0.00 52 1015.2
20260901164542 90 276 5.0 15.0 0.00 0.00 0.00 53 1016.4
20260901163037 89 306 6.0 11.0 0.00 0.00 0.00 51 1016.4
20260901161549 88 270 6.0 13.0 0.00 0.00 0.00 54 1016.4
20260901160039 87 259 5.0 11.0 0.00 0.00 0.00 57 1016.6
20260901160027 88 270 5.0 10.0 0.00 0.00 0.00 57 1015.4
20260901154547 86 279 5.0 11.0 0.00 0.00 0.00 57 1016.4
20260901153045 85 252 4.0 10.0 0.00 0.00 0.00 60 1016.6
20260901151539 84 279 4.0 10.0 0.00 0.00 0.00 62 1016.7
20260901150040 83 265 3.0 10.0 0.00 0.00 0.00 63 1016.7
20260901150018 84 265 3.0 9.0 0.00 0.00 0.00 63 1015.4
20260901144540 82 251 3.0 8.0 0.00 0.00 0.00 66 1016.6
20260901143045 81 298 3.0 8.0 0.00 0.00 0.00 67 1016.6
20260901141546 80 255 4.0 9.0 0.00 0.00 0.00 68 1016.5
20260901140036 79 254 3.0 10.0 0.00 0.00 0.00 70 1016.7
20260901140021 79 254 3.0 7.0 0.00 0.00 0.00 71 1015.6
20260901134539 77 258 3.0 9.0 0.00 0.00 0.00 73 1016.6
20260901133036 75 266 3.0 7.0 0.00 0.00 0.00 75 1016.8
20260901131536 74 271 3.0 7.0 0.00 0.00 0.00 76 1016.6
20260901130034 73 0 1.0 6.0 0.00 0.00 0.00 78 1016.6
20260901130026 74 263 1.0 5.0 0.00 0.00 0.00 78 1015.6
20260901124540 72 0 1.0 4.0 0.00 0.00 0.00 79 1016.5
20260901123035 71 281 1.0 3.0 0.00 0.00 0.00 81 1016.5
20260901121536 71 0 0.0 2.0 0.00 0.00 0.00 80 1016.4
20260901120034 71 0 0.0 2.0 0.00 0.00 0.00 81 1016.2
20260901120021 71 279 0.0 2.0 0.00 0.00 0.00 81 1015.1
20260901114545 70 0 0.0 1.0 0.00 0.00 0.00 82 1016.1
20260901113037 70 0 0.0 1.0 0.00 0.00 0.00 83 1016.1
20260901111535 70 0 0.0 0.0 0.00 0.00 0.00 82 1015.9
20260901110051 71 257 0.0 0.0 0.00 0.00 0.00 81 1014.7
20260901110036 71 0 0.0 0.0 0.00 0.00 0.00 81 1015.8
20260901104537 71 0 0.0 2.0 0.00 0.00 0.00 80 1015.7
20260901103036 71 0 0.0 1.0 0.00 0.00 0.00 79 1015.6
20260901101538 72 0 0.0 1.0 0.00 0.00 0.00 79 1015.6
20260901100035 72 0 0.0 2.0 0.00 0.00 0.00 80 1015.4
20260901100023 72 250 1.0 2.0 0.00 0.00 0.00 80 1014.4
20260901094540 70 0 0.0 3.0 0.00 0.00 0.00 84 1015.2
20260901093037 70 0 0.0 0.0 0.00 0.00 0.00 86 1015.0
20260901091536 70 0 0.0 0.0 0.00 0.00 0.00 88 1015.0
20260901090046 70 0 0.0 1.0 0.00 0.00 0.00 89 1015.0
20260901090031 71 259 0.0 1.0 0.00 0.00 0.00 89 1013.9
20260901084535 70 0 0.0 0.0 0.00 0.00 0.00 89 1014.9
20260901083034 70 0 0.0 0.0 0.00 0.00 0.00 89 1014.7
20260901081537 70 0 0.0 0.0 0.00 0.00 0.00 90 1014.6
20260901080038 70 259 0.0 1.0 0.00 0.00 0.00 90 1013.5
20260901074535 70 0 0.0 0.0 0.00 0.00 0.00 89 1014.8
20260901073037 70 0 0.0 0.0 0.00 0.00 0.00 89 1014.9
20260901071537 70 0 0.0 1.0 0.00 0.00 0.00 87 1015.0
20260901070037 70 0 0.0 0.0 0.00 0.00 0.00 86 1015.0
20260901070027 71 259 0.0 0.0 0.00 0.00 0.00 86 1013.8
20260901064534 71 0 0.0 0.0 0.00 0.00 0.00 85 1015.2
20260901063036 71 0 0.0 0.0 0.00 0.00 0.00 84 1015.2
20260901061534 72 0 0.0 0.0 0.00 0.00 0.00 82 1015.3
20260901060037 74 259 0.0 0.0 0.00 0.00 0.00 81 1014.2
20260901060035 73 0 0.0 0.0 0.00 0.00 0.00 80 1015.2
20260901054534 74 0 0.0 0.0 0.00 0.00 0.00 77 1015.2
20260901053039 75 0 0.0 0.0 0.00 0.00 0.00 76 1015.2